Погода в Нежине

Украина / Черниговская область     51°02′47″N   31°52′48″E
темп.,
°C
ветер,
м/с
пор.,
м/с
влажн.,
%
обл.,
%
осадки,
мм/ч
давл.,
гПа
погр.,
м
17 мая, пн
пн1700:00+14всв478363 0.0 1009100
03:00+14св41082100 0.0 1007197
06:00+14всв41293100 1.9 1004353
09:00+17всв3489100 3.3 1002320
12:00+21вюв2373100 0.0 10021016
15:00+22ююв127095 0.1 1001847
18:00+20ююв59825 3.6 1000516
21:00+16ююз59952 5.9 1001239
18 мая, вт
вт1800:00+14ю359713 0.0 1003103
03:00+13ююз3497100 0.0 100282
06:00+13ююв3598100 0.0 1003128
09:00+16ю3588100 0.0 1003386
12:00+18ю4678100 2.2 1003476
15:00+20юв566692 3.8 1001970
18:00+19ююв588099 2.9 1000849
21:00+14юв5119483 4.9 1000322
19 мая, ср
ср1900:00+12юв4109784 0.0 1000272
03:00+12юв4109791 0.0 1001320
06:00+11юв4898100 0.0 1001243
09:00+15ююв5882100 0.0 1003586
12:00+17ююв4569100 0.0 10031017
15:00+19ююв346199 0.1 10041434
18:00+18ю2371100 0.8 1004575
21:00+14зюз2284100 1.5 100516
20 мая, чт
чт2000:00+11зсз3798100 0.3 1005165
03:00+11з4897100 0.8 1006416
06:00+11з479799 0.1 1006352
09:00+12з4795100 0.3 1006521
12:00+12з4695100 0.2 1008449
15:00+14зсз5683100 0.3 1009783
18:00+15ссз246825 0.1 1010977
21:00+11ссв3487100 0.1 101254
21 мая, пт
пт2100:00+10в3482100 0.0 101378
03:00+10вюв3484100 0.0 101389
06:00+10в3596100 0.9 1014194
09:00+11в3695100 1.3 1015279
12:00+12всв3593100 0.1 1015342
15:00+14всв4687100 0.2 1015436
18:00+14св3690100 0.0 1015387
21:00+13ссв4898100 2.4 1015335